Weather observations for the past three days for
Hemet-Ryan Airport
Imperial (Metric)
Date Time (pdt) Wind (mph) Vis. (mi.) Weather Sky Cond. Temperature (ºF) Relative Humidity Wind Chill (°F) Heat Index (°F) Pressure Precipitation (in)
Air Dwpt 6 hour altimeter (in) sea level (mb) 1 hr 3 hr 6 hr
Max. Min.
04 19:55 W 10 10.00 Overcast OVC070 59 44.6 59% 29.96 0.0
04 19:35 W 12 10.00 Overcast OVC070 59 44.6 59% 29.95 0.0
04 19:15 W 14 10.00 Overcast OVC070 59 44.6 59% 29.96 0.0
04 18:55 W 13 10.00 Overcast OVC070 60.8 44.6 55% 29.96 0.0
04 18:35 W 14 10.00 Overcast OVC070 62.6 42.8 49% 29.95 0.0
04 18:15 W 13 10.00 Mostly Cloudy BKN070 BKN090 62.6 42.8 49% 29.95 0.0
04 17:55 W 14 10.00 Partly Cloudy SCT070 62.6 42.8 49% 29.95 0.0
04 17:35 W 12 G 17 10.00 Mostly Cloudy SCT055 BKN070 66.2 41 40% 29.94 0.0
04 17:15 W 9 10.00 Mostly Cloudy SCT055 BKN070 66.2 41 40% 29.95 0.0
04 16:55 W 9 G 18 10.00 Overcast OVC070 68 39.2 35% 29.95 0.0
04 16:35 W 12 G 20 10.00 Overcast OVC070 68 39.2 35% 29.94 0.0
04 16:15 NW 10 10.00 Overcast OVC070 66.2 39.2 37% 29.95 0.0
04 15:55 W 6 10.00 Overcast OVC070 64.4 39.2 40% 29.95 0.0
04 15:35 NW 7 10.00 Overcast SCT060 OVC070 64.4 39.2 40% 29.96 0.0
04 15:15 W 12 10.00 Overcast OVC070 66.2 41 40% 29.97 0.0
04 14:55 W 6 10.00 Overcast SCT050 OVC070 66.2 41 40% 29.97 0.0
04 14:35 W 7 10.00 Overcast OVC060 64.4 41 43% 29.98 0.0
04 14:15 W 8 10.00 Overcast OVC060 62.6 41 45% 29.99 0.0
04 13:55 NW 6 10.00 Overcast OVC060 64.4 41 43% 29.99 0.0
04 13:35 NW 9 10.00 Overcast OVC070 64.4 41 43% 29.99 0.0
04 13:15 W 8 G 18 10.00 Overcast BKN045 OVC055 64.4 41 43% 29.99 0.0
04 12:55 S 9 10.00 Overcast OVC045 62.6 42.8 49% 30 0.0
04 12:35 SW 9 10.00 Overcast BKN045 OVC060 62.6 42.8 49% 30 0.0
04 12:15 NW 6 10.00 Overcast OVC060 60.8 42.8 52% 30.01 0.0
04 11:55 SW 6 10.00 Overcast SCT040 BKN050 OVC060 60.8 42.8 52% 30.02 0.0
04 11:35 S 9 10.00 Overcast SCT038 OVC055 60.8 42.8 52% 30.01 0.0
04 11:15 SW 12 10.00 Overcast SCT039 BKN047 OVC050 60.8 42.8 52% 30.02 0.0
04 10:55 SW 12 10.00 Overcast BKN044 OVC050 59 42.8 55% 30.01 0.0
04 10:35 S 7 10.00 Overcast SCT043 OVC050 60.8 42.8 52% 30 0.0
04 10:15 S 10 10.00 Overcast BKN042 OVC048 60.8 41 48% 30 0.0
04 09:55 Calm 10.00 Overcast BKN042 OVC047 59 42.8 55% 30 0.0
04 09:35 S 7 10.00 Overcast SCT026 OVC044 59 44.6 59% 30 0.0
04 09:15 S 5 10.00 Overcast SCT026 SCT032 OVC042 57.2 44.6 63% 29.99 0.0
04 08:55 SW 6 10.00 Mostly Cloudy SCT028 BKN032 BKN038 57.2 44.6 63% 29.99 0.0
04 08:35 SE 3 10.00 Partly Cloudy SCT048 57.2 46.4 67% 29.99 0.0
04 08:15 Calm 10.00 Mostly Cloudy BKN048 BKN050 55.4 46.4 72% 29.99 0.0
04 07:55 S 5 10.00 Partly Cloudy SCT050 55.4 46.4 72% 29.99 0.0
04 07:35 Calm 10.00 Mostly Cloudy SCT022 BKN050 53.6 46.4 77% 29.98 0.0
04 07:15 Calm 10.00 Overcast SCT022 OVC050 53.6 46.4 77% 29.98 0.0
04 06:55 Calm 10.00 Overcast BKN022 OVC050 53.6 46.4 77% 29.99 0.0
04 06:35 NW 5 10.00 Overcast BKN022 BKN033 OVC048 53.6 44.6 72% 29.99 0.0
04 06:15 NW 5 10.00 Overcast BKN024 OVC029 53.6 44.6 72% 29.99 0.0
04 05:55 Calm 10.00 Overcast BKN024 OVC030 53.6 46.4 77% 29.98 0.0
04 05:35 Calm 10.00 Overcast SCT017 OVC022 53.6 48.2 82% 29.97 0.0
04 05:15 SW 3 10.00 Overcast BKN022 BKN028 OVC050 53.6 48.2 82% 29.97 0.0
04 04:55 SW 5 10.00 Mostly Cloudy SCT022 BKN050 BKN070 53.6 48.2 82% 29.97 0.0
04 04:35 W 3 10.00 Partly Cloudy SCT050 SCT070 51.8 46.4 82% 29.97 0.0
04 04:15 NW 3 10.00 Mostly Cloudy SCT023 SCT032 BKN047 53.6 46.4 77% 29.96 0.0
04 03:55 W 3 10.00 Overcast BKN025 BKN032 OVC049 53.6 46.4 77% 29.97 0.0
04 03:35 SW 3 10.00 Overcast SCT023 BKN032 OVC049 53.6 46.4 77% 29.96 0.0
04 03:15 SW 5 10.00 Overcast OVC049 53.6 48.2 82% 29.96 0.0
04 02:55 SW 3 10.00 Overcast OVC049 53.6 48.2 82% 29.95 0.0
04 02:35 W 3 10.00 Overcast OVC049 55.4 48.2 77% 29.96 0.0
04 02:15 Calm 10.00 Overcast OVC047 55.4 48.2 77% 29.97 0.0
04 01:55 SW 3 10.00 Overcast SCT040 OVC047 55.4 48.2 77% 29.97 0.0
04 01:35 SW 5 10.00 Overcast SCT039 OVC049 55.4 48.2 77% 29.99 0.0
04 01:15 SW 6 10.00 Overcast BKN036 BKN041 OVC047 55.4 48.2 77% 30 0.0
04 00:55 SW 7 10.00 Light Rain SCT036 OVC045 55.4 50 82% 30.01 0.0
04 00:35 S 7 10.00 Overcast OVC042 55.4 48.2 77% 30 0.0
04 00:15 SW 5 10.00 Overcast OVC042 55.4 48.2 77% 30 0.0
03 23:55 SW 3 10.00 Overcast OVC044 55.4 48.2 77% 29.99 0.0
03 23:35 S 9 10.00 Overcast OVC044 55.4 48.2 77% 29.98 0.0
03 23:15 SW 10 10.00 Overcast OVC046 55.4 48.2 77% 29.97 0.0
03 22:55 S 12 10.00 Overcast OVC048 55.4 48.2 77% 29.97 0.0
03 22:35 S 6 10.00 Overcast OVC048 55.4 48.2 77% 29.97 0.0
03 22:15 S 5 10.00 Overcast OVC050 55.4 46.4 72% 29.98 0.0
03 21:55 S 9 10.00 Overcast OVC048 57.2 46.4 67% 29.98 0.0
03 21:35 S 3 10.00 Overcast OVC048 57.2 46.4 67% 29.98 0.0
03 21:15 S 6 10.00 Overcast OVC048 57.2 48.2 72% 29.97 0.0
03 20:55 S 10 10.00 Overcast BKN048 OVC050 57.2 48.2 72% 29.97 0.0
03 20:35 SW 16 10.00 Mostly Cloudy BKN050 57.2 48.2 72% 29.96 0.0
03 20:15 SW 10 G 17 10.00 Overcast OVC044 59 46.4 63% 29.96 0.0
03 19:55 SW 13 10.00 Overcast OVC046 59 46.4 63% 29.94 0.0
03 19:35 SW 14 10.00 Mostly Cloudy BKN042 59 46.4 63% 29.94 0.0
03 19:15 SW 17 G 24 10.00 Fair CLR 59 46.4 63% 29.93 0.0
03 18:55 SW 16 G 24 10.00 Fair CLR 60.8 46.4 59% 29.92 0.0
03 18:35 SW 16 10.00 Fair CLR 62.6 46.4 56% 29.91 0.0
03 18:15 SW 15 10.00 Fair CLR 64.4 46.4 52% 29.91 0.0
03 17:55 SW 17 G 22 10.00 Fair CLR 66.2 48.2 52% 29.9 0.0
03 17:35 SW 13 10.00 Fair CLR 68 48.2 49% 29.9 0.0
03 17:15 S 8 G 20 10.00 Partly Cloudy SCT042 SCT120 68 48.2 49% 29.88 0.0
03 16:55 S 10 10.00 Fair CLR 68 48.2 49% 29.89 0.0
03 16:35 SW 12 10.00 Fair CLR 68 48.2 49% 29.9 0.0
03 16:15 S 9 10.00 Fair CLR 69.8 48.2 46% 29.9 0.0
03 15:55 SW 10 G 17 10.00 Fair CLR 68 48.2 49% 29.91 0.0
03 15:35 SE 8 10.00 Fair CLR 69.8 50 50% 29.91 0.0
03 15:15 S 10 10.00 Partly Cloudy SCT037 68 50 53% 29.92 0.0
03 14:55 S 10 10.00 Overcast OVC035 68 50 53% 29.93 0.0
03 14:35 SW 12 10.00 Overcast OVC033 68 50 53% 29.94 0.0
03 14:15 S 14 10.00 Overcast OVC033 66.2 51.8 60% 29.94 0.0
03 13:55 S 10 10.00 Overcast OVC033 64.4 51.8 64% 29.94 0.0
03 13:35 SW 9 10.00 Overcast OVC031 64.4 51.8 64% 29.95 0.0
03 13:15 S 9 10.00 Overcast OVC028 64.4 51.8 64% 29.95 0.0
03 12:55 SW 10 10.00 Overcast SCT021 OVC028 62.6 51.8 68% 29.95 0.0
03 12:35 SW 12 10.00 Overcast SCT019 OVC026 62.6 51.8 68% 29.96 0.0
03 11:55 SW 9 10.00 Overcast OVC024 62.6 53.6 73% 29.97 0.0
03 11:35 SW 9 10.00 Overcast SCT017 OVC022 62.6 51.8 68% 29.97 0.0
03 11:15 SW 10 10.00 Overcast OVC016 60.8 53.6 77% 29.97 0.0
03 10:55 SW 7 10.00 Overcast SCT012 OVC019 60.8 53.6 77% 29.97 0.0
03 10:35 SW 7 10.00 Overcast BKN015 OVC019 59 53.6 82% 29.97 0.0
03 10:15 SW 7 10.00 Overcast OVC013 59 53.6 82% 29.97 0.0
03 09:55 SW 7 10.00 Overcast SCT008 OVC017 59 53.6 82% 29.96 0.0
03 09:35 SW 6 10.00 Overcast SCT008 OVC019 59 53.6 82% 29.96 0.0
03 09:15 SW 6 7.00 Fog/Mist SCT006 OVC015 57.2 55.4 94% 29.96 0.0
03 08:55 SW 7 3.50 Fog/Mist SCT006 OVC013 57.2 55.4 94% 29.96 0.0
03 08:35 SW 8 3.50 Fog/Mist SCT006 OVC013 57.2 55.4 94% 29.96 0.0
03 08:15 SW 10 10.00 Overcast SCT006 SCT010 OVC015 57.2 55.4 94% 29.95 0.0
03 07:55 W 8 10.00 Overcast OVC013 57.2 55.4 94% 29.95 0.0
03 07:35 W 6 7.00 Overcast OVC013 55.4 55.4 100% 29.95 0.0
03 07:15 SW 5 5.00 Fog/Mist OVC013 55.4 55.4 100% 29.94 0.0
03 06:55 W 7 3.00 Fog/Mist SCT006 OVC013 55.4 55.4 100% 29.94 0.0
03 06:35 SW 7 2.50 Fog/Mist SCT006 OVC011 55.4 55.4 100% 29.94 0.0
03 06:15 W 8 2.50 Fog/Mist BKN003 OVC011 55.4 55.4 100% 29.93 0.0
03 05:55 W 7 3.50 Fog/Mist OVC003 55.4 55.4 100% 29.92 0.0
03 05:35 W 5 2.50 Fog/Mist OVC003 55.4 55.4 100% 29.91 0.0
03 05:15 W 6 2.00 Fog/Mist OVC003 55.4 55.4 100% 29.92 0.0
03 04:55 W 6 2.00 Fog/Mist OVC003 55.4 55.4 100% 29.92 0.0
03 04:35 W 7 2.00 Fog/Mist OVC003 55.4 55.4 100% 29.92 0.0
03 04:15 W 5 2.50 Fog/Mist OVC003 55.4 55.4 100% 29.91 0.0
03 03:55 W 3 4.00 Fog/Mist OVC003 55.4 55.4 100% 29.91 0.0
03 03:35 W 6 3.00 Fog/Mist OVC003 55.4 55.4 100% 29.92 0.0
03 03:15 W 7 2.50 Fog/Mist OVC003 55.4 55.4 100% 29.92 0.0
03 02:55 SW 8 2.50 Fog/Mist OVC003 55.4 55.4 100% 29.92 0.0
03 02:35 W 9 1.75 Fog/Mist OVC003 55.4 55.4 100% 29.91 0.0
03 02:15 W 7 1.50 Fog/Mist OVC003 55.4 55.4 100% 29.92 0.0
03 01:55 SW 9 1.00 Fog/Mist OVC003 55.4 55.4 100% 29.93 0.0
03 01:35 SW 10 4.00 Fog/Mist OVC003 57.2 55.4 94% 29.93 0.0
03 01:15 SW 10 3.50 Fog/Mist OVC003 57.2 55.4 94% 29.94 0.0
03 00:55 SW 10 5.00 Fog/Mist BKN003 OVC120 57.2 55.4 94% 29.94 0.0
03 00:35 SW 13 7.00 Fog/Mist SCT003 BKN120 57.2 55.4 94% 29.94 0.0
03 00:15 SW 14 10.00 Partly Cloudy SCT110 57.2 55.4 94% 29.93 0.0
02 23:55 SW 13 10.00 Partly Cloudy SCT120 57.2 55.4 94% 29.93 0.0
02 23:35 SW 9 10.00 Partly Cloudy SCT120 59 55.4 88% 29.93 0.0
02 23:15 SW 10 10.00 Partly Cloudy SCT120 59 55.4 88% 29.93 0.0
02 22:55 SW 9 10.00 Partly Cloudy SCT120 59 55.4 88% 29.92 0.0
02 22:35 SW 7 10.00 Partly Cloudy SCT110 60.8 55.4 83% 29.92 0.0
02 22:15 SW 10 10.00 Fair CLR 60.8 55.4 83% 29.92 0.0
02 21:55 SW 12 10.00 Fair CLR 62.6 55.4 77% 29.91 0.0
02 21:35 SW 12 10.00 Partly Cloudy SCT110 62.6 55.4 77% 29.9 0.0
02 21:15 SW 13 10.00 Fair CLR 64.4 55.4 73% 29.89 0.0
02 20:55 SW 12 10.00 Fair CLR 66.2 55.4 68% 29.88 0.0
02 20:35 SW 10 10.00 Fair CLR 66.2 55.4 68% 29.88 0.0
02 20:15 SW 10 10.00 Fair CLR 68 55.4 64% 29.87 0.0
02 19:55 SW 9 10.00 Fair CLR 69.8 55.4 60% 29.87 0.0
02 19:35 W 7 10.00 Fair CLR 69.8 53.6 57% 29.86 0.0
02 19:15 SW 9 10.00 Partly Cloudy SCT120 71.6 55.4 57% 29.86 0.0
02 18:55 SW 12 10.00 Fair CLR 73.4 53.6 50% 29.85 0.0
02 18:35 SW 15 10.00 Fair CLR 75.2 55.4 50% 78 29.85 0.0
02 18:15 SW 14 10.00 Partly Cloudy SCT110 77 55.4 47% 79 29.85 0.0
02 17:55 S 13 10.00 Partly Cloudy SCT120 78.8 55.4 45% 79 29.85 0.0
02 17:35 SW 15 10.00 Partly Cloudy SCT120 78.8 53.6 42% 79 29.85 0.0
02 17:15 SW 17 10.00 Partly Cloudy SCT120 80.6 53.6 39% 80 29.84 0.0
02 16:55 SW 16 10.00 Partly Cloudy SCT120 80.6 51.8 37% 80 29.84 0.0
02 16:35 SW 18 10.00 Partly Cloudy SCT120 82.4 53.6 37% 81 29.84 0.0
02 16:15 SW 18 10.00 Partly Cloudy SCT110 84.2 53.6 35% 83 29.84 0.0
02 15:55 SW 13 10.00 Partly Cloudy SCT110 84.2 51.8 33% 82 29.84 0.0
02 15:35 S 14 G 21 10.00 Partly Cloudy SCT110 86 51.8 31% 84 29.85 0.0
02 15:15 S 14 10.00 Partly Cloudy SCT110 86 53.6 33% 84 29.86 0.0
02 14:55 S 13 10.00 Partly Cloudy SCT110 86 53.6 33% 84 29.86 0.0
02 14:35 SW 13 10.00 Partly Cloudy SCT100 SCT120 87.8 44.6 22% 85 29.87 0.0
02 14:15 SW 10 10.00 Fair CLR 87.8 44.6 22% 85 29.88 0.0
02 13:55 W 10 10.00 Fair CLR 86 48.2 27% 83 29.88 0.0
02 13:35 SW 13 10.00 Fair CLR 86 48.2 27% 83 29.89 0.0
02 13:15 SW 10 10.00 Fair CLR 84.2 48.2 29% 82 29.9 0.0
02 12:55 SW 10 10.00 Fair CLR 82.4 50 32% 81 29.91 0.0
02 12:35 SW 8 10.00 Fair CLR 80.6 51.8 37% 80 29.92 0.0
02 12:15 SW 7 10.00 Fair CLR 78.8 53.6 42% 79 29.92 0.0
02 11:55 SW 9 10.00 Partly Cloudy SCT110 78.8 53.6 42% 79 29.93 0.0
02 11:35 SW 7 10.00 Partly Cloudy SCT110 75.2 53.6 47% 78 29.94 0.0
02 11:15 SW 9 10.00 Partly Cloudy SCT110 73.4 53.6 50% 29.95 0.0
02 10:55 SW 8 10.00 Partly Cloudy SCT095 SCT120 73.4 55.4 53% 29.96 0.0
02 10:35 SW 3 10.00 Partly Cloudy SCT110 69.8 53.6 57% 29.96 0.0
02 10:15 Calm 10.00 Partly Cloudy SCT110 68 55.4 64% 29.96 0.0
02 09:55 Calm 10.00 Partly Cloudy SCT110 66.2 55.4 68% 29.97 0.0
02 09:35 Calm 10.00 Fair CLR 64.4 55.4 73% 29.97 0.0
02 09:15 S 3 7.00 Partly Cloudy SCT110 60.8 55.4 83% 29.98 0.0
02 08:55 SW 6 7.00 Partly Cloudy with Haze SCT008 SCT110 59 55.4 88% 29.99 0.0
02 08:35 Calm 5.00 Fog/Mist BKN006 BKN110 57.2 55.4 94% 29.98 0.0
02 08:15 Calm 4.00 Fog/Mist OVC002 55.4 55.4 100% 29.98 0.0
02 07:55 Calm 1.50 Fog/Mist OVC002 55.4 53.6 94% 29.98 0.0
02 07:35 SW 6 0.25 Fog OVC003 55.4 53.6 94% 29.99 0.0
02 07:15 W 5 0.25 Fog OVC003 55.4 53.6 94% 29.98 0.0
02 06:55 SW 8 0.15 Fog OVC003 53.6 53.6 100% 29.98 0.0
02 06:35 SW 8 0.25 Fog OVC003 53.6 53.6 100% 29.97 0.0
02 06:15 SW 9 0.25 Fog OVC003 53.6 51.8 94% 29.96 0.0
02 05:55 SW 7 0.15 Fog OVC003 50 50 100% 48 29.95 0.0
02 05:35 SW 7 2.00 Fog/Mist SCT003 SCT100 SCT120 48.2 48.2 100% 46 29.94 0.0
02 05:15 W 3 0.15 Fog OVC002 50 48.2 94% 29.94 0.0
02 04:55 Calm 0.15 Fog BKN002 OVC110 48.2 46.4 94% 29.94 0.0
02 04:35 Calm 5.00 Fog/Mist SCT110 50 48.2 94% 29.94 0.0
02 04:15 Calm 2.00 Fog/Mist CLR 50 50 100% 29.93 0.0
02 03:55 Calm 5.00 Fog/Mist CLR 51.8 50 94% 29.93 0.0
02 03:35 Calm 0.50 Fog BKN110 51.8 50 94% 29.93 0.0
02 03:15 Calm 7.00 Mostly Cloudy BKN100 BKN120 50 50 100% 29.93 0.0
02 02:55 Calm 7.00 Fair CLR 51.8 50 94% 29.93 0.0
02 02:35 Calm 5.00 Fog/Mist CLR 48.2 48.2 100% 29.93 0.0
02 02:15 Calm 10.00 Partly Cloudy SCT100 SCT120 53.6 50 88% 29.94 0.0
02 01:55 Calm 7.00 Fog/Mist CLR 51.8 48.2 88% 29.95 0.0
02 01:35 Calm 10.00 Partly Cloudy SCT120 55.4 51.8 88% 29.95 0.0
02 01:15 Calm 10.00 Partly Cloudy SCT090 SCT120 57.2 53.6 88% 29.96 0.0
02 00:55 SW 3 10.00 Fair CLR 55.4 53.6 94% 29.96 0.0
02 00:35 SW 6 10.00 Fair CLR 55.4 51.8 88% 29.96 0.0
02 00:15 SW 7 10.00 Fair CLR 55.4 51.8 88% 29.96 0.0
01 23:55 SW 8 10.00 Partly Cloudy SCT110 55.4 53.6 94% 29.96 0.0
01 23:35 SW 7 10.00 Partly Cloudy SCT110 57.2 53.6 88% 29.96 0.0
01 23:15 SW 7 10.00 Partly Cloudy SCT110 57.2 53.6 88% 29.96 0.0
01 22:55 SW 7 10.00 Partly Cloudy SCT110 57.2 53.6 88% 29.96 0.0
01 22:35 SW 8 10.00 Fair CLR 59 53.6 82% 29.96 0.0
01 22:15 S 6 10.00 Fair CLR 59 53.6 82% 29.96 0.0
01 21:55 SW 7 10.00 Fair CLR 60.8 53.6 77% 29.96 0.0
01 21:35 W 9 10.00 Fair CLR 60.8 53.6 77% 29.96 0.0
01 21:15 SW 7 10.00 Fair CLR 60.8 53.6 77% 29.95 0.0
01 20:55 W 10 10.00 Fair CLR 60.8 53.6 77% 29.95 0.0
01 20:35 SW 7 10.00 Fair CLR 62.6 53.6 73% 29.94 0.0
01 20:15 SW 9 10.00 Fair CLR 64.4 53.6 68% 29.92 0.0
Date Time (pdt) Wind (mph) Vis. (mi.) Weather Sky Cond. Air Dwpt Max. Min. Relative Humidity Wind Chill (°F) Heat Index (°F) altimeter (in) sea level (mb) 1 hr 3 hr 6 hr
6 hour
Temperature (ºF) Pressure Precipitation (in)